EDT,Max TemperatureF,Mean TemperatureF,Min TemperatureF,Max Dew PointF,MeanDew PointF,Min DewpointF,Max Humidity, Mean Humidity, Min Humidity, Max Sea Level PressureIn, Mean Sea Level PressureIn, Min Sea Level PressureIn, Max VisibilityMiles, Mean VisibilityMiles, Min VisibilityMiles, Max Wind SpeedMPH, Mean Wind SpeedMPH, Max Gust SpeedMPH,PrecipitationIn, CloudCover, Events, WindDirDegrees
2012-4-1,46,40,35,39,35,30,93,85,76,29.89,29.80,29.74,,,,15,5,,0.04,,,29
2012-4-2,43,38,33,37,35,30,89,84,76,30.13,30.05,29.90,,,,14,8,,0.00,,,46
2012-4-3,55,41,32,38,31,26,88,66,41,30.06,29.96,29.83,,,,13,4,30,0.00,,,134
2012-4-4,48,40,34,36,33,30,85,71,58,29.97,29.94,29.90,,,,14,7,24,0.00,,,335
2012-4-5,39,37,35,33,27,25,77,70,64,30.18,30.10,29.99,,,,22,16,20,0.00,,,19
2012-4-6,44,36,30,33,29,23,79,71,53,30.33,30.27,30.19,,,,13,6,16,0.00,,,26
2012-4-7,50,38,27,36,27,20,78,62,36,30.33,30.26,30.13,,,,15,3,,0.00,,,123
2012-4-8,57,48,39,43,31,19,80,55,24,30.11,30.00,29.93,,,,17,6,26,0.00,,,287
2012-4-9,48,42,36,33,27,23,73,52,42,29.97,29.85,29.78,,,,10,6,18,0.00,,,311
2012-4-10,46,41,36,34,30,28,86,69,52,29.96,29.85,29.79,,,,17,10,30,0.00,,,302
2012-4-11,45,40,32,36,34,29,89,79,71,30.22,30.13,29.96,,,,14,7,18,0.03,,,360
2012-4-12,46,38,30,38,35,28,92,79,71,30.27,30.23,30.20,,,,9,3,,0.00,,,24
2012-4-13,50,39,28,37,32,27,92,74,44,30.31,30.23,30.12,,,,14,4,,0.00,,,127
2012-4-14,71,59,48,52,42,29,75,53,43,30.10,29.92,29.79,,,,13,6,26,0.00,,,211
2012-4-15,72,64,55,60,57,52,93,81,66,29.83,29.75,29.69,,,,13,7,25,0.09,,,210
2012-4-16,73,56,41,60,49,32,90,66,47,30.05,29.67,29.51,,,,23,11,46,0.30,,,229
2012-4-17,42,38,35,31,27,24,79,66,57,30.40,30.31,30.07,,,,14,10,23,0.00,,,330
2012-4-18,59,44,30,38,33,28,92,62,44,30.36,30.17,29.91,,,,22,9,25,0.00,,,143
2012-4-19,55,48,41,44,38,36,89,75,47,30.05,29.97,29.89,,,,14,8,,0.07,,,33
2012-4-20,51,44,39,44,39,34,97,89,80,29.93,29.81,29.69,,,,23,14,32,0.62,,,34
2012-4-21,43,40,37,34,32,30,83,72,65,30.07,30.01,29.92,,,,20,17,29,0.00,,,12
2012-4-22,46,42,39,35,33,31,77,70,60,30.10,30.06,29.99,,,,21,13,24,0.00,,,18
2012-4-23,50,45,42,35,32,29,74,59,48,29.97,29.75,29.52,,,,20,11,28,0.00,,,340
2012-4-24,52,46,41,36,32,26,70,57,42,29.64,29.50,29.43,,,,16,9,29,0.00,,,321
2012-4-25,51,43,35,36,32,27,82,59,44,29.83,29.77,29.66,,,,16,7,16,0.00,,,134
2012-4-26,51,45,39,44,38,28,93,76,52,30.05,29.79,29.66,,,,13,4,22,0.06,,,323
2012-4-27,43,39,36,32,26,21,82,60,47,30.28,30.20,30.08,,,,14,9,24,0.00,,,360
2012-4-28,42,35,28,32,28,24,85,70,58,30.31,30.29,30.26,,,,12,4,,0.00,,,78
2012-4-29,48,38,28,37,29,23,89,67,41,30.38,30.32,30.27,,,,10,4,,0.00,,,102
2012-4-30,46,44,42,44,37,26,93,74,48,30.26,30.05,29.90,,,,22,10,23,0.23,,,137